Location: Prostejov
(49.4670°N, 17.1170°E)
Time: 02:38:29
(UTC+01:00)

ISS - Pass Details

Date: 01 October 2020
Orbit: 417 x 420 km, 51.6° (Epoch: 25 October)

Event Time Altitude Azimuth Distance (km) Brightness Sun altitude
Rises 19:30:05 0° 287° (WNW) 2,369 2.1 -10.7°
Reaches altitude 10° 19:32:11 10° 288° (WNW) 1,504 0.5 -11.0°
Maximum altitude 19:35:34 83° 17° (NNE) 429 -3.8 -11.6°
Enters shadow 19:37:46 20° 104° (ESE) 1,031 -2.4 -11.9°
